User: anonymous   Login
Location: Unspecified
(0.0000°N, 0.0000°E)
Time: 21:19:11
(UTC+00:00)
Language:

STARLINK-33833 - Orbit

View from above orbital plane
View from above orbital plane
View from above satellite
View from above satellite

Ground track
Ground track

The orbit is defined by the following mean orbital elements,

1 63498U          26145.27409397 +.00000000 +00000-0 +61661-3 0 00005
2 63498  53.1577 144.3137 0000958  91.2188 268.8923 15.30199274    03
Epoch (UTC): 25 May 2026 06:34:41
Eccentricity: 0.0000958
inclination: 53.1577°
perigee height: 475 km
apogee height: 476 km
right ascension of ascending node: 144.3137°
argument of perigee: 91.2188°
revolutions per day: 15.30199274
mean anomaly at epoch: 268.8923°

The dashed part of the orbit path shows where the satellite is in the earth's shadow,  

DLR